Temp
24 23 23 23 23 23 23 23 23 23 23 23 23 23 23 23 23 23 23 23 24 24 24 24 24 24 24 24 25 25 25 25 25 25 24 24 24 24 24 24 24 24 24 24 24 24 24 24 24 24 24 23 23 23 23 23 23 24 24 24 24 24 23 22 21 21 22 23 24 24 24 24 24 25 25 25 25 25 25 25 25 25 24 24 24
24 24 23 23 23 23 23 23 23 23 23 23 23 23 23 23 23 23 23 23 24 24 24 24 24 24 24 24 25 25 25 25 25 24 24 24 24 24 24 24 24 24 24 24 24 24 24 24 24 24 24 23 23 23 23 23 23 23 23 23 24 24 23 23 22 21 22 23 23 24 24 24 24 24 25 25 25 25 25 25 25 25 25 25 24
24 24 23 23 23 23 23 23 23 23 23 23 23 23 23 23 23 23 23 23 23 24 24 24 24 24 24 24 24 24 25 25 25 24 24 24 24 24 24 24 24 24 24 24 24 24 23 23 24 24 23 23 23 23 23 23 23 23 23 23 23 23 23 23 22 22 22 22 23 23 23 24 24 24 24 24 24 24 24 25 25 25 25 25 25
24 24 23 23 23 23 23 23 23 23 23 23 23 23 23 23 23 23 23 23 23 23 24 24 24 24 24 24 24 24 25 25 25 24 24 24 24 24 24 24 24 24 24 24 24 23 23 23 24 24 23 23 23 23 23 23 23 23 23 23 23 23 23 23 22 22 22 22 23 23 23 23 23 24 24 24 24 24 24 24 24 24 24 25 25
24 24 24 23 23 23 23 23 23 23 23 23 23 23 23 23 23 23 23 23 23 23 23 23 23 24 24 24 24 24 24 25 24 25 25 25 24 24 24 24 24 24 24 24 24 23 23 23 24 23 23 22 23 23 23 23 23 23 23 23 23 23 22 22 22 22 22 21 22 23 23 23 23 23 23 23 23 23 23 23 23 24 24 24 24
24 24 24 23 23 23 23 23 23 23 23 23 23 23 23 23 23 23 23 23 23 23 23 23 23 24 24 24 24 24 24 24 24 24 24 24 24 25 24 24 24 24 24 24 24 23 23 23 23 23 22 23 23 23 23 23 23 23 22 23 23 22 22 22 22 21 21 21 21 22 22 22 22 23 23 23 22 22 23 23 23 23 23 23 23
24 24 24 24 23 23 23 23 23 23 23 23 23 23 23 23 23 23 23 23 23 23 23 23 23 23 24 24 24 24 24 24 24 24 24 24 24 24 24 24 24 24 24 24 24 23 23 23 23 23 23 23 23 23 23 23 23 23 23 23 22 22 22 22 22 21 21 21 21 21 21 21 21 22 23 22 22 22 22 22 22 22 22 23 23
25 24 24 24 24 23 23 23 23 23 23 23 23 23 23 23 23 23 23 23 23 23 23 23 23 23 23 23 23 23 23 23 24 24 24 24 24 24 24 24 24 24 24 24 24 23 24 23 23 23 23 23 23 23 23 23 23 23 23 23 22 22 22 22 21 21 21 20 20 21 21 21 21 21 22 21 21 21 22 21 21 22 22 22 23
25 24 24 24 24 24 24 24 23 23 23 23 23 23 23 23 23 23 23 23 23 23 23 23 23 23 23 23 23 23 23 23 23 24 24 24 24 24 24 24 24 23 23 23 23 23 23 23 24 23 23 23 23 23 23 23 23 23 23 23 22 22 22 22 21 21 21 20 20 21 20 20 20 21 21 21 21 21 22 21 21 21 22 22 22
25 24 24 24 24 24 24 24 23 23 23 23 23 23 23 23 23 23 23 23 23 23 23 23 23 23 23 23 23 23 23 23 23 24 24 24 24 24 24 24 23 23 23 23 23 23 23 23 23 23 23 23 24 24 24 23 23 23 24 23 22 22 21 21 21 21 21 20 20 21 20 20 21 21 21 22 22 22 21 21 21 21 21 20 21
25 24 24 24 24 24 24 23 23 23 23 23 23 23 23 23 23 23 23 23 23 23 23 23 23 23 23 23 23 23 23 23 23 23 24 24 24 24 23 23 23 23 23 23 23 23 23 23 23 23 23 23 24 24 24 23 23 23 24 23 23 22 21 21 21 21 21 21 21 21 21 21 21 22 22 22 22 22 21 21 21 21 20 20 20
25 24 24 24 24 24 24 23 23 23 23 23 23 23 23 23 23 23 23 23 23 23 23 23 23 23 23 23 23 23 23 23 23 23 23 23 23 23 23 23 23 23 23 23 23 23 23 23 23 23 23 24 24 24 24 24 23 23 23 23 23 22 22 22 22 22 21 21 21 21 21 21 22 22 22 22 22 22 21 21 21 20 20 20 20
25 25 24 24 24 24 24 24 23 23 23 23 23 23 23 23 23 23 23 23 23 23 23 23 23 23 23 23 23 23 23 23 23 23 23 23 23 23 23 23 23 23 23 23 23 23 23 23 23 23 23 24 23 23 23 23 23 23 23 23 23 23 23 23 22 22 22 22 21 21 22 22 22 22 22 22 22 22 21 21 21 21 21 20 21
25 25 25 24 24 24 24 24 24 23 23 23 23 23 23 23 23 23 23 23 23 23 23 23 23 23 23 23 23 23 23 23 23 23 23 23 23 23 23 23 23 23 23 23 23 23 23 23 23 23 23 23 23 23 24 23 23 23 23 23 23 24 23 23 23 23 22 22 21 21 22 22 22 22 23 22 22 22 22 22 22 21 20 20 21
25 25 25 24 24 24 24 24 24 23 23 23 23 23 23 23 23 23 23 23 23 23 23 23 23 23 23 23 23 23 23 23 23 23 23 23 23 23 23 23 23 23 23 23 23 23 23 23 23 23 23 23 23 23 23 24 23 23 23 23 23 23 23 23 23 24 23 23 22 22 23 23 23 23 23 22 22 22 22 21 21 21 20 20 20
25 25 25 25 24 24 24 24 24 24 23 23 23 23 23 23 23 23 23 23 23 23 23 23 23 23 23 23 23 23 23 23 23 23 24 24 23 23 23 23 23 23 23 23 23 23 23 23 23 23 23 23 24 24 24 24 23 23 23 22 23 23 23 23 23 24 24 23 23 23 23 23 23 23 23 23 22 22 21 21 20 20 19 19 19
25 25 25 25 25 24 24 24 24 24 23 23 23 23 23 23 23 23 23 23 23 23 23 23 23 23 23 23 23 23 23 23 23 24 24 24 23 23 23 23 23 23 23 23 23 23 23 23 23 23 23 23 24 24 24 24 23 23 22 22 23 23 23 23 23 24 24 24 24 24 23 24 24 23 23 23 23 22 20 19 19 19 18 18 19
25 25 25 25 25 25 24 24 24 24 24 23 23 23 23 23 23 23 23 23 23 23 23 23 23 23 23 23 23 23 23 23 23 23 24 24 24 24 24 23 23 23 23 23 23 23 23 23 23 23 23 24 24 24 24 24 23 23 23 23 22 22 22 23 23 23 23 23 23 23 23 23 23 23 23 23 23 23 20 19 20 19 18 18 18
26 26 26 25 25 25 25 25 24 24 24 24 24 24 23 23 23 23 23 23 23 23 23 23 23 23 23 23 23 23 23 23 24 24 24 24 24 24 24 23 23 23 23 23 23 23 23 23 23 24 24 24 25 25 24 24 23 23 23 22 22 22 23 23 23 23 23 23 23 23 23 23 22 23 22 22 22 22 21 21 21 20 18 18 19
26 26 26 26 26 25 25 25 25 24 24 24 24 24 24 24 23 23 23 23 23 23 23 23 23 23 23 23 23 23 23 23 24 24 24 24 24 24 24 23 23 23 23 23 23 23 23 23 24 24 24 25 25 25 24 24 23 23 22 22 22 22 23 23 23 23 23 22 22 22 22 22 22 22 22 21 21 21 21 21 21 20 19 19 19
27 27 26 26 26 26 25 25 25 25 25 24 24 24 24 24 24 23 23 23 23 23 23 23 23 23 23 23 23 23 24 24 24 24 24 24 24 24 24 24 23 23 23 23 23 23 23 24 24 25 25 25 25 24 24 24 23 23 22 22 23 23 23 23 22 22 22 22 22 22 22 22 22 22 21 21 21 21 21 20 20 20 20 19 19
27 27 27 26 26 26 26 25 25 25 25 25 24 24 24 24 24 24 24 23 23 23 23 23 23 23 23 23 24 24 24 24 24 24 24 24 24 24 24 24 24 24 23 23 23 23 24 24 25 25 25 24 24 24 24 24 23 23 23 23 23 23 23 22 22 22 21 21 21 21 22 22 22 22 21 21 21 21 20 19 19 19 19 19 19
27 27 27 27 27 26 26 26 26 25 25 25 25 24 24 24 24 24 24 24 23 23 23 23 23 23 23 23 24 24 24 24 24 24 24 24 24 24 24 24 25 24 24 24 24 24 24 25 25 25 24 24 24 24 24 23 23 23 23 23 23 22 22 22 21 21 21 21 21 21 21 21 21 21 21 21 20 19 18 18 18 18 18 18 18
27 27 27 27 27 27 26 26 26 26 26 25 25 25 25 24 24 24 24 24 23 23 23 23 23 23 23 23 24 24 24 24 24 24 24 25 25 25 25 25 25 25 24 24 25 24 24 24 24 24 24 24 24 23 23 23 23 23 23 22 22 21 21 21 21 21 21 21 21 20 20 20 20 20 20 19 18 18 18 18 17 16 16 16 16
27 27 28 27 27 27 27 27 26 26 26 26 25 25 25 24 24 24 24 24 24 23 23 23 23 23 23 23 24 24 24 24 24 24 25 25 25 25 25 25 25 25 25 24 24 24 24 24 24 24 23 23 23 23 22 22 22 22 22 21 21 21 21 21 21 21 21 20 20 19 19 20 19 18 18 18 17 18 17 16 16 16 16 16 16
27 27 27 27 27 27 27 27 27 26 26 26 26 25 25 25 24 24 24 24 24 24 23 23 23 23 23 23 24 24 24 24 24 25 25 25 25 25 25 25 25 25 25 24 23 23 23 23 23 23 23 22 22 22 22 22 21 21 21 21 21 21 21 21 21 21 20 19 18 17 17 18 18 17 17 17 16 17 16 16 16 16 16 16 16
27 27 27 27 27 27 26 26 26 26 26 26 26 25 25 25 25 24 24 24 24 24 24 23 23 23 23 23 24 24 24 24 24 24 25 25 25 25 25 25 25 25 24 24 23 22 22 22 22 22 22 21 21 21 21 21 21 21 21 21 21 21 21 21 20 19 18 17 16 16 16 16 16 16 16 16 16 16 16 15 15 16 16 16 15
27 27 27 27 27 26 26 26 26 26 25 25 25 25 25 25 25 24 24 24 24 24 24 24 24 24 24 24 24 24 24 24 24 25 25 25 25 25 25 25 25 25 25 25 23 22 21 21 21 21 21 21 21 21 21 20 20 21 21 21 21 21 20 20 19 18 17 16 15 15 15 15 15 15 15 15 16 16 16 15 15 15 15 15 15
26 26 26 26 26 26 26 25 25 25 25 24 24 24 24 24 24 24 24 24 24 24 24 24 24 24 24 24 24 23 23 24 25 26 26 26 26 26 26 26 26 26 26 24 23 21 20 20 20 20 20 20 20 20 20 20 20 20 20 20 20 20 20 20 19 18 16 15 15 15 15 15 15 15 15 15 15 16 16 15 15 15 15 15 15
26 26 25 25 25 25 25 25 24 24 24 24 23 23 23 23 24 24 24 24 24 24 25 25 25 25 25 24 24 24 24 25 26 26 26 25 25 25 25 26 26 25 24 23 21 20 20 19 19 20 20 20 20 20 20 20 20 20 20 20 20 21 20 18 17 16 15 14 15 15 15 15 15 15 15 15 15 16 16 15 15 15 15 15 15
26 26 25 25 25 25 24 24 24 24 23 23 22 22 21 21 22 23 23 24 24 24 24 24 25 25 25 25 25 25 25 25 25 25 25 25 25 25 25 25 25 24 23 21 21 20 20 19 19 19 19 19 19 19 19 20 20 21 21 20 20 20 19 17 15 15 15 15 15 15 15 15 15 15 15 14 14 15 15 15 15 15 14 14 14
26 25 25 25 25 24 24 24 23 22 22 21 21 21 21 21 21 21 22 23 23 24 24 24 24 25 25 25 25 25 25 25 24 24 24 24 24 24 24 24 23 22 21 21 20 19 19 19 19 19 19 19 17 17 17 18 18 19 19 18 18 18 18 16 16 15 15 15 15 15 14 14 14 14 14 14 14 14 15 15 15 14 14 14 14
25 25 25 25 24 24 24 23 23 22 21 21 21 21 21 21 20 20 20 21 22 23 23 23 24 24 24 24 24 24 24 24 24 23 23 23 23 22 22 21 21 20 20 21 20 19 19 19 18 18 18 17 16 15 15 15 16 16 16 17 17 17 16 16 15 15 15 15 15 14 14 14 14 14 15 14 14 14 15 15 14 14 14 14 14
25 25 24 24 24 24 23 23 23 22 21 21 21 21 21 21 21 20 20 20 20 21 22 22 23 23 23 23 23 23 23 23 22 22 22 21 21 21 21 20 19 19 20 20 20 19 18 17 17 16 16 16 15 15 15 15 15 15 15 15 16 16 16 16 15 15 15 15 15 14 14 14 14 14 14 15 15 15 15 14 14 13 13 13 13
24 24 24 23 24 23 23 23 22 22 20 20 21 21 21 21 22 21 20 19 19 19 19 20 20 21 22 22 21 21 21 21 20 20 20 20 20 20 20 19 18 18 19 19 19 18 17 17 16 15 15 15 15 15 15 15 15 15 15 15 15 16 16 16 16 16 15 15 15 15 15 15 14 14 14 14 14 14 14 14 13 13 13 13 13
23 23 23 22 22 22 22 21 21 21 20 20 21 21 21 21 21 20 20 19 18 17 16 16 17 18 19 19 19 19 19 19 19 19 19 19 19 19 19 19 18 18 18 17 18 17 17 16 16 15 15 15 15 15 15 15 15 15 15 15 15 15 15 16 16 16 15 15 16 16 16 16 15 15 15 15 15 14 14 13 13 13 13 13 13
22 22 22 22 21 21 20 20 20 20 20 20 20 20 20 20 19 19 18 18 17 16 15 15 16 17 17 17 17 17 17 18 18 18 18 19 19 19 19 19 18 18 17 16 16 16 16 16 15 15 15 15 16 16 15 15 15 15 15 16 15 15 15 16 16 16 16 16 16 16 16 16 16 15 15 15 15 15 14 14 13 13 13 13 13
22 22 21 21 21 21 20 20 20 19 19 19 19 19 19 18 18 17 17 16 16 16 16 16 16 16 16 16 17 17 17 17 18 18 18 18 18 18 18 18 17 17 16 16 16 16 16 15 15 15 15 16 16 15 15 15 15 15 15 15 16 16 16 16 16 16 16 16 16 16 16 16 16 16 16 15 16 16 15 14 14 14 14 14 14
21 21 21 21 21 20 20 20 19 19 19 19 18 18 18 17 17 17 16 16 16 15 15 15 15 15 15 16 17 17 17 17 17 16 16 17 17 17 16 16 16 16 16 16 16 16 16 15 15 15 15 15 15 15 15 15 15 15 15 15 16 16 16 16 16 16 16 16 16 16 16 16 16 16 16 16 16 16 16 16 15 14 14 15 15
20 20 20 20 20 19 19 19 19 19 19 18 18 17 17 16 16 15 15 15 14 14 14 14 14 15 15 16 16 16 16 16 16 15 15 15 16 16 16 16 16 15 15 15 15 16 16 15 15 15 14 14 15 15 15 15 15 16 15 15 16 16 16 16 16 16 16 16 16 16 16 16 16 16 16 16 16 16 16 16 16 16 15 15 15
20 19 19 19 19 18 18 18 18 18 18 17 17 17 16 16 15 14 14 13 13 13 13 13 14 14 15 16 16 16 16 15 14 15 15 15 15 15 15 15 15 15 15 15 15 15 15 15 14 14 14 14 15 15 15 15 15 15 15 15 15 15 15 15 16 16 16 16 16 16 16 16 16 16 16 16 16 16 16 16 17 16 16 16 16
18 18 18 18 18 17 17 16 16 16 16 16 16 15 15 15 14 14 13 12 12 12 12 12 13 14 15 15 16 16 15 14 14 14 14 14 14 14 14 14 14 14 14 14 14 14 14 14 14 14 14 15 15 15 15 15 15 15 15 15 15 15 15 15 15 15 16 16 15 15 16 16 16 16 16 16 16 16 16 16 17 17 17 17 16
17 16 16 16 16 15 15 15 15 15 15 14 14 14 14 13 13 13 12 12 11 11 11 11 11 12 13 14 15 15 14 13 13 13 13 13 13 13 13 13 13 13 13 14 13 14 14 14 14 14 14 14 14 14 14 14 15 15 15 15 15 15 15 15 15 16 16 16 16 16 15 15 16 16 16 16 16 16 16 16 17 17 17 17 17
16 15 14 14 14 14 14 14 14 13 13 13 13 12 12 12 11 11 11 11 10 10 10 10 10 11 11 12 13 13 13 12 12 12 12 12 11 11 12 12 12 13 13 13 13 13 13 13 13 13 13 13 13 13 13 14 14 14 14 14 15 15 15 15 15 16 16 16 16 16 16 16 16 16 16 16 16 16 16 16 16 17 17 17 17
14 13 13 13 12 12 12 12 12 12 12 11 11 11 11 11 10 10 10 10 9 9 9 9 9 10 10 10 11 11 10 10 10 10 10 10 10 10 11 11 12 12 13 13 13 13 13 13 12 12 12 12 13 13 13 13 13 14 14 14 15 15 15 15 15 15 16 16 16 16 16 16 16 16 16 16 16 16 16 16 16 16 16 16 16
12 12 12 11 11 11 11 11 11 11 10 10 10 10 10 9 9 9 9 8 8 8 8 8 8 8 8 8 8 8 8 8 8 8 9 9 9 9 10 10 11 11 11 11 12 12 12 12 12 12 12 12 12 12 13 13 13 13 14 14 14 15 15 15 15 15 16 16 16 16 16 16 16 16 16 16 16 16 16 16 16 16 16 16 16
11 10 10 10 10 10 10 10 9 9 9 9 9 8 8 8 8 8 8 8 7 7 7 7 7 7 7 7 7 7 7 7 7 7 7 8 8 9 9 9 10 10 10 10 10 11 11 11 11 11 11 11 12 12 12 12 13 13 13 14 14 14 15 15 15 15 15 16 16 16 16 16 16 16 16 16 16 16 16 16 16 16 16 16 16
10 9 9 9 9 8 8 8 8 8 8 7 7 7 7 7 6 6 6 6 6 6 6 6 6 6 6 6 6 6 6 6 6 6 6 7 7 8 8 8 9 9 9 9 9 9 10 10 10 10 10 11 11 11 11 12 12 12 13 13 13 14 14 15 15 15 16 16 16 16 16 16 16 16 16 16 17 16 16 16 16 16 16 16 16
8 8 8 7 7 7 7 7 7 7 7 6 6 6 6 6 5 5 5 5 5 5 5 5 5 5 5 5 5 5 5 5 5 5 5 6 6 7 7 7 8 8 8 8 8 8 8 9 9 9 9 10 10 10 10 11 11 12 12 12 13 13 14 14 15 15 15 15 15 16 16 16 16 16 16 16 16 16 16 16 16 16 16 16 16
8 8 7 7 6 6 6 6 6 6 6 5 5 5 5 5 5 5 4 4 4 4 4 4 4 4 4 4 4 4 4 4 4 4 4 5 5 6 6 6 7 7 7 7 7 7 8 8 8 9 9 9 9 9 9 10 10 10 11 11 12 13 13 14 14 15 15 15 15 15 15 15 15 16 16 16 16 16 16 16 16 16 16 16 16
8 7 7 7 6 6 6 6 6 6 5 5 5 5 5 5 4 4 4 4 4 4 4 4 4 4 3 3 4 4 4 3 3 3 4 4 5 5 5 6 6 6 6 6 7 7 7 7 8 8 8 8 8 8 9 9 9 9 10 11 11 12 13 13 14 14 14 15 15 15 15 15 15 15 15 15 15 15 16 16 16 16 16 16 16
Height
773 777 780 784 787 790 793 795 798 801 803 806 808 809 812 814 816 819 821 824 825 827 828 830 831 833 835 837 838 840 841 842 843 844 845 846 846 848 849 850 851 851 852 853 854 854 854 854 855 856 858 859 859 860 860 861 862 862 863 862 862 863 863 863 862 857 854 855 856 855 855 855 854 854 854 853 853 853 852 851 851 851 851 850 850
770 773 777 780 783 786 789 792 795 798 801 803 805 807 809 811 814 817 819 821 823 824 826 827 829 831 832 834 835 837 838 840 841 842 843 843 844 845 846 847 848 849 850 851 851 852 852 852 852 854 856 857 857 858 858 859 860 860 860 860 860 860 860 860 860 857 852 851 853 853 852 853 852 851 851 850 850 850 849 848 848 847 847 847 846
766 770 774 777 780 784 787 790 793 795 798 800 802 804 806 809 811 814 816 818 820 822 824 825 827 828 829 831 832 834 836 837 838 839 840 841 842 843 844 845 846 847 847 848 848 849 850 850 850 851 853 854 855 856 856 856 857 857 857 857 857 857 857 857 857 856 852 849 850 850 849 849 848 847 848 848 847 847 846 845 845 844 844 843 842
763 767 770 774 777 781 784 787 790 792 795 797 799 801 804 806 809 811 813 815 817 819 821 823 825 826 827 828 829 831 833 834 836 837 837 839 839 840 842 843 844 844 845 845 846 847 848 847 848 849 851 852 852 853 853 853 854 854 854 855 854 854 855 855 854 854 852 848 847 847 847 846 845 845 845 845 844 844 843 842 842 841 841 840 839
760 764 767 771 775 778 781 784 787 789 792 794 796 799 801 804 806 808 810 812 814 816 818 820 822 823 824 825 826 828 829 831 833 834 835 836 837 838 839 840 841 842 843 843 844 845 845 845 845 847 849 850 850 850 850 851 851 851 852 852 851 852 852 852 852 851 850 848 845 845 845 844 842 842 842 842 841 841 840 839 838 838 838 836 835
757 761 764 768 771 775 778 781 783 786 788 791 793 796 799 801 803 805 807 809 811 813 815 817 819 820 821 822 823 824 826 828 829 831 832 834 835 835 836 837 838 839 840 841 841 842 842 843 843 846 847 847 847 847 848 848 848 848 848 848 848 849 849 849 849 849 848 846 844 843 842 841 840 839 839 839 838 837 836 834 833 834 833 832 830
753 757 761 765 768 771 774 776 779 782 784 787 790 792 795 797 799 802 804 806 808 810 812 814 815 817 818 819 820 822 823 825 826 828 829 830 832 832 833 834 836 836 837 838 839 840 840 840 841 843 844 844 844 845 846 846 846 845 845 845 845 846 846 846 846 846 845 844 842 840 839 839 838 836 835 836 835 834 833 831 828 829 828 826 824
749 753 757 761 764 766 769 772 775 777 780 784 786 789 791 794 796 798 801 802 804 806 808 810 812 813 815 816 817 819 820 822 823 824 826 827 828 829 830 832 833 834 835 835 836 837 837 838 839 839 840 841 842 843 843 843 843 842 841 842 843 843 843 843 843 843 843 841 840 838 836 835 835 833 832 833 831 829 829 828 826 824 823 821 819
745 749 753 756 758 761 765 768 771 774 778 781 783 786 788 790 792 795 797 799 800 803 805 807 809 810 811 813 814 816 817 818 818 820 822 823 825 826 827 829 830 831 832 833 834 834 835 835 836 836 838 838 839 840 840 840 840 839 838 839 840 841 841 841 841 840 840 838 837 835 834 832 831 830 829 828 827 825 825 826 823 820 819 817 814
741 745 748 751 754 758 762 765 769 772 775 777 780 782 785 787 789 791 793 795 797 800 802 804 806 807 808 809 811 812 813 813 814 816 818 820 822 823 824 826 827 828 830 830 831 831 832 833 833 834 835 835 836 836 837 837 837 836 836 836 838 838 839 839 838 838 837 836 833 832 831 828 826 826 825 824 824 823 822 822 819 817 818 815 809
737 741 744 748 752 756 759 763 766 768 771 774 776 779 781 784 786 788 790 792 794 796 799 800 802 803 805 806 807 808 808 809 810 812 814 816 818 820 821 823 824 826 827 827 828 829 829 830 830 831 832 832 832 833 833 834 834 833 833 833 834 836 836 836 835 835 835 833 830 829 828 824 821 822 822 821 821 820 819 819 817 816 816 814 808
734 738 741 746 750 753 756 760 762 765 768 770 773 775 778 780 782 784 786 788 790 792 794 796 797 799 801 802 803 804 804 805 807 809 811 813 815 817 818 820 821 822 823 824 825 826 827 827 827 828 828 828 829 829 830 830 830 830 829 829 830 831 832 832 831 831 831 830 826 825 824 821 817 817 819 818 816 816 816 815 815 814 813 812 808
731 735 739 743 746 749 753 756 758 761 763 766 769 772 774 776 778 780 782 784 786 788 789 791 793 795 797 798 799 800 800 802 803 805 807 809 811 813 815 817 818 819 820 821 822 823 823 824 824 824 824 825 826 826 826 826 826 826 826 826 826 826 827 827 827 827 827 826 823 819 819 818 813 812 815 815 813 813 812 811 811 810 809 809 806
728 731 735 739 742 745 749 752 754 757 759 762 765 768 770 772 773 776 778 780 782 783 785 787 788 790 792 793 795 796 796 798 800 801 803 805 807 810 811 813 814 815 817 818 818 819 820 820 821 820 821 822 822 823 823 823 823 823 822 822 821 821 822 822 822 822 822 821 819 814 813 813 810 808 811 812 811 809 808 807 807 806 808 808 802
724 728 731 735 738 742 745 747 750 753 756 759 762 764 766 767 769 772 774 775 777 778 780 782 783 785 787 789 791 791 792 794 796 797 799 801 804 806 808 809 810 811 813 814 815 815 816 817 817 817 817 818 818 819 819 819 820 819 819 818 816 816 817 817 817 817 816 816 813 809 808 808 807 806 806 808 807 805 805 804 803 804 807 805 795
722 725 728 731 735 738 741 744 747 749 753 756 758 760 762 763 765 768 770 771 773 774 776 778 779 780 782 785 786 786 787 790 792 793 795 798 800 802 803 805 806 807 808 810 810 811 812 813 813 813 813 814 814 815 815 816 816 816 815 814 813 813 813 813 813 812 811 810 808 806 804 803 803 802 802 803 802 801 802 801 799 803 805 799 789
718 721 725 728 731 734 737 740 743 746 749 752 754 756 757 759 761 764 766 767 769 770 772 773 775 776 778 780 781 781 783 785 787 789 791 794 796 798 799 800 801 802 804 805 806 807 807 809 809 810 810 810 810 811 811 812 812 812 812 811 810 809 809 809 809 808 807 806 805 804 802 800 799 798 798 799 798 798 799 795 793 798 800 794 787
715 718 721 724 727 730 733 736 739 742 745 747 749 751 753 755 757 759 761 763 764 766 767 769 771 772 774 775 776 777 779 781 783 784 787 789 792 793 794 795 797 798 799 800 801 802 803 804 806 806 806 805 805 806 807 808 808 808 808 807 807 806 806 806 805 804 803 803 801 800 798 797 795 794 793 794 793 794 795 791 788 791 793 789 783
711 714 717 720 723 726 729 732 735 738 741 743 745 746 748 750 752 755 757 759 760 762 764 766 767 768 770 771 773 774 775 776 778 780 782 785 787 789 790 791 792 794 795 796 797 798 799 800 801 802 802 801 801 802 803 804 804 804 805 805 804 803 802 802 802 800 800 799 797 795 794 793 792 790 789 788 788 789 790 787 786 786 785 782 779
707 710 714 717 720 723 726 729 731 734 737 739 740 742 744 746 749 752 754 756 757 759 761 762 763 764 766 767 769 770 771 772 774 776 778 780 782 784 786 787 788 789 791 792 793 794 795 796 796 797 797 797 798 799 800 801 801 801 802 802 800 798 798 799 798 798 796 795 794 792 791 790 789 787 785 783 783 784 783 782 782 781 779 776 773
705 709 712 715 718 720 723 725 728 730 733 735 737 739 741 743 746 748 750 752 754 755 757 759 760 761 762 764 765 766 766 768 770 772 774 776 778 780 782 782 784 785 787 788 789 789 790 791 791 792 793 793 794 796 796 797 798 798 798 797 796 795 796 795 795 794 793 792 790 789 787 786 785 783 782 780 779 779 779 777 777 776 774 770 767
704 707 709 712 715 717 720 722 725 727 730 732 735 737 738 740 742 744 746 748 750 752 754 755 757 758 759 760 761 762 763 764 766 768 770 771 773 775 777 778 780 782 783 784 784 785 786 787 787 788 789 790 791 792 793 793 794 794 794 793 793 793 793 792 791 790 789 788 788 786 784 783 781 779 778 777 775 775 775 773 772 771 769 766 764
702 704 707 709 711 714 717 719 722 724 726 729 732 733 735 737 739 741 743 745 747 748 750 752 754 755 756 757 757 758 759 761 762 764 765 767 769 771 772 774 776 778 779 779 780 781 782 782 783 785 786 787 787 788 789 790 790 790 790 791 791 790 790 789 788 788 786 785 784 782 781 780 779 776 775 773 771 771 770 767 765 765 764 761 760
700 702 704 706 708 711 713 716 718 720 722 725 728 729 731 734 735 737 739 741 743 745 747 749 751 752 753 753 754 755 756 757 758 760 761 763 764 766 768 770 772 773 775 775 776 777 778 779 781 782 783 784 784 785 786 787 787 788 788 788 787 787 787 786 786 785 784 783 781 780 779 778 776 774 772 770 768 766 765 762 759 759 757 755 753
696 698 700 702 705 707 710 712 714 716 718 720 723 725 727 730 732 734 736 738 739 741 743 745 747 748 749 750 750 751 752 753 754 756 758 759 761 762 765 766 768 770 771 772 773 774 775 777 778 779 780 781 782 782 783 784 784 785 784 784 784 784 784 784 783 782 781 781 779 778 777 776 774 772 770 768 765 762 761 758 755 753 751 749 747
693 695 697 699 701 703 706 708 710 712 714 716 718 720 722 725 727 729 731 733 735 737 739 741 743 744 745 746 747 748 749 750 751 753 754 756 757 759 761 762 764 766 767 768 770 771 772 774 775 776 777 778 779 780 781 781 781 781 782 782 782 782 782 781 781 780 780 779 778 777 775 774 772 770 768 765 762 760 758 757 753 749 746 744 741
692 693 695 696 698 700 702 704 706 709 711 713 715 717 719 721 723 725 727 729 732 734 736 738 739 741 742 743 744 745 745 747 748 749 751 752 753 755 756 758 760 761 763 764 766 767 769 771 772 773 775 776 777 778 778 778 779 779 779 780 779 780 780 779 779 778 778 777 776 775 774 772 770 768 766 764 761 758 757 755 752 748 744 742 738
691 692 694 695 696 698 699 701 703 706 708 710 712 714 716 718 719 721 722 725 727 730 732 734 735 736 738 739 740 741 742 743 744 745 747 748 749 750 752 753 755 756 757 759 761 764 766 768 769 771 772 773 774 774 775 776 776 777 777 778 778 778 777 777 777 776 776 775 774 773 772 771 769 767 765 763 760 758 756 754 750 747 743 740 736
690 692 693 694 695 696 698 699 701 703 705 707 709 711 713 715 717 718 720 722 724 726 728 729 731 732 734 735 737 738 739 740 740 741 743 744 746 747 748 749 750 752 753 755 757 760 762 764 766 767 769 770 771 771 772 774 774 775 775 776 776 776 775 775 774 774 773 773 773 772 771 769 767 766 764 763 760 756 754 752 749 746 742 739 734
689 691 692 694 694 695 696 697 699 701 702 704 707 709 711 713 715 717 718 720 722 723 725 726 728 730 731 732 734 735 736 736 737 738 740 741 743 744 745 746 747 749 750 752 755 757 759 761 763 764 766 767 768 769 770 771 772 773 773 774 774 774 773 773 773 772 772 772 771 771 769 768 766 765 763 762 758 754 751 750 747 744 740 737 733
688 689 691 693 694 694 695 696 697 699 701 703 705 707 710 712 714 715 717 718 720 721 723 724 725 727 728 729 730 732 732 733 734 735 736 738 740 741 742 743 744 746 748 751 753 755 757 759 761 763 764 766 767 768 769 769 770 771 771 771 772 772 771 771 771 770 770 769 769 768 767 766 765 763 762 760 757 753 750 748 745 742 739 735 732
687 688 690 692 693 694 694 695 696 698 700 702 704 706 708 711 713 715 716 717 718 719 720 721 723 724 725 726 727 728 729 730 731 732 733 735 737 738 740 741 743 745 747 749 752 754 756 758 760 762 764 765 766 767 767 767 768 768 769 769 769 770 769 769 769 768 768 767 766 765 765 764 763 761 759 758 755 753 749 746 743 740 737 734 731
686 688 689 691 692 693 693 694 695 696 698 700 703 705 707 709 711 713 714 715 716 716 717 719 720 721 722 723 724 725 726 727 728 729 731 733 735 737 739 741 743 745 747 749 751 755 757 759 760 762 763 764 765 766 766 766 766 767 767 767 767 768 768 768 767 767 766 765 764 764 763 762 761 758 756 755 754 751 748 745 743 740 738 734 731
685 687 689 690 691 692 692 693 693 695 697 699 701 703 705 707 708 710 712 713 714 715 716 717 718 719 720 721 722 723 723 725 726 728 730 732 734 737 739 742 744 747 749 751 752 755 758 760 761 761 762 762 763 764 765 766 766 766 766 766 766 766 766 766 766 765 764 763 763 763 762 760 758 756 755 754 752 749 747 744 743 741 739 736 733
686 687 689 690 690 691 692 692 693 694 696 698 700 702 704 706 707 708 709 711 712 714 715 716 717 718 719 720 721 722 723 724 727 729 731 734 736 738 741 743 746 749 751 752 753 756 758 760 760 761 761 762 763 764 765 765 765 765 765 765 765 765 765 765 764 763 763 762 761 760 759 757 756 755 754 752 750 748 746 744 743 742 741 738 735
687 688 689 690 691 691 692 693 694 695 696 698 699 701 703 705 706 708 709 710 711 713 715 716 717 719 720 721 723 725 726 728 730 733 735 737 739 740 741 744 747 749 751 753 754 756 758 760 761 762 762 762 763 764 765 765 764 764 764 764 764 764 764 764 763 762 762 761 759 758 757 756 755 754 753 751 749 748 747 745 744 744 743 740 736
687 689 689 690 691 692 693 694 695 696 697 699 700 702 703 705 706 708 709 710 712 713 715 717 719 720 723 726 728 729 731 733 736 738 739 741 743 743 742 743 745 747 749 751 754 756 758 761 762 763 763 763 764 764 764 764 763 763 764 764 764 764 764 763 762 762 760 759 758 757 756 756 755 754 752 750 749 748 747 745 745 745 743 740 737
688 689 690 691 692 692 693 694 696 697 699 700 701 702 704 706 707 709 710 712 714 715 717 719 720 722 724 729 732 733 735 737 740 742 743 744 745 745 745 745 747 749 750 752 754 756 758 761 763 764 764 764 764 764 763 763 763 763 763 764 764 763 763 762 762 761 760 758 757 756 756 755 754 753 751 749 748 748 747 746 745 745 744 741 738
689 691 692 692 693 693 694 694 696 698 699 701 703 704 706 708 709 711 713 714 716 718 720 722 724 725 727 730 733 735 737 739 741 744 746 746 747 748 749 750 751 753 754 756 757 758 759 761 762 763 764 764 764 764 763 763 763 763 763 763 763 762 762 761 761 760 759 758 757 756 756 755 753 752 750 749 748 748 747 746 746 746 744 742 739
691 692 694 694 694 695 696 696 697 698 699 702 704 706 708 711 713 715 717 718 720 722 723 724 726 728 731 733 734 736 738 741 743 747 749 748 748 750 752 753 754 755 757 759 760 760 761 762 763 764 765 765 764 763 763 763 763 763 763 762 762 762 761 761 760 759 758 757 757 756 755 754 752 751 750 749 748 748 747 747 747 746 745 743 741
693 694 696 696 697 697 698 699 700 701 702 703 705 707 710 713 716 718 721 723 725 727 728 728 729 731 733 735 736 738 740 743 747 749 750 749 750 751 753 755 756 758 759 760 762 762 762 763 764 764 765 764 764 763 763 763 763 762 762 762 762 761 761 760 759 758 758 757 756 755 754 753 752 751 750 749 748 748 747 747 747 746 745 744 742
695 697 698 699 699 700 700 702 703 704 705 706 708 710 712 714 717 720 723 726 728 730 730 730 731 733 735 737 738 739 740 744 748 750 751 751 751 753 755 757 758 759 761 762 762 763 763 763 764 764 764 764 763 763 762 762 762 762 762 762 761 761 760 759 759 758 757 756 756 755 753 752 751 750 750 749 748 748 748 747 747 746 745 744 743
698 700 701 702 702 703 704 704 705 706 707 709 711 713 715 717 719 722 725 728 731 733 733 733 733 734 736 739 741 741 743 745 748 750 752 752 753 755 756 758 760 761 762 763 763 764 764 764 764 764 764 763 763 762 762 762 762 762 762 762 761 760 760 759 758 757 756 755 754 753 753 752 751 750 750 749 749 749 748 748 747 746 745 744 743
700 702 704 705 706 707 708 708 708 709 711 712 714 716 718 720 722 725 727 730 733 735 737 738 737 737 739 741 743 744 745 747 750 752 753 754 755 757 758 760 761 762 763 763 764 764 765 765 765 764 764 763 763 763 763 762 762 762 762 761 761 760 759 758 757 756 755 754 753 752 752 751 750 750 749 749 749 749 749 748 747 746 745 744 743
703 705 706 708 710 711 712 713 713 714 715 715 717 719 721 723 725 728 731 733 735 737 739 740 740 740 741 743 745 747 748 750 752 754 755 756 757 759 760 761 762 763 763 764 765 765 765 765 765 764 764 764 764 764 763 763 762 762 762 761 760 759 758 757 757 756 755 753 753 752 751 750 750 749 749 748 748 748 748 748 747 746 745 744 743
707 708 709 711 713 715 716 717 718 719 720 721 722 723 725 726 728 731 734 736 738 739 740 742 743 744 744 746 748 750 752 754 755 756 757 758 759 760 761 762 763 763 764 765 766 766 766 766 765 765 765 765 764 764 763 763 763 762 762 761 760 759 758 757 756 755 755 754 753 752 751 750 749 748 748 748 748 748 748 747 747 746 745 744 743
710 711 712 714 716 718 720 722 722 722 723 725 727 728 729 730 732 734 736 738 740 742 743 744 746 747 749 750 752 754 755 757 758 759 759 760 761 762 763 763 764 765 765 766 766 766 766 766 766 765 765 765 764 764 763 763 763 762 761 760 760 759 758 757 756 755 755 754 753 752 751 750 749 749 748 748 748 747 747 746 746 745 744 743 742
712 714 716 717 719 721 723 725 726 726 727 729 730 731 732 734 736 738 740 741 742 744 746 748 749 751 753 755 756 757 758 760 761 762 762 763 763 764 765 765 765 766 766 767 767 767 767 767 766 766 765 765 764 764 763 763 762 762 761 760 760 759 758 757 756 755 755 754 753 752 751 750 750 749 749 748 747 747 746 745 745 744 743 742 741
715 717 719 721 722 724 726 728 729 731 732 732 733 734 735 737 739 741 743 744 745 746 749 751 752 754 756 758 760 761 762 763 764 765 766 767 767 767 767 767 767 768 768 768 768 768 767 767 767 766 766 765 765 764 764 763 763 762 761 760 760 759 758 757 756 756 755 754 753 752 751 750 750 750 749 749 748 747 746 745 744 743 742 742 741
720 721 724 726 726 727 729 730 731 734 735 736 736 737 738 741 743 745 747 748 749 750 752 754 755 757 759 761 762 764 765 766 767 769 770 771 770 770 770 770 770 770 769 769 769 769 768 768 767 767 766 766 765 765 765 764 763 763 762 761 760 759 758 757 756 755 754 753 752 751 751 751 750 750 749 749 748 747 746 745 744 743 742 741 740
725 726 729 731 733 733 733 733 734 736 737 738 739 740 742 744 747 748 750 751 752 754 755 756 758 760 761 763 765 767 768 770 771 773 773 774 774 773 773 773 772 772 771 771 770 769 769 768 768 768 767 767 767 766 766 765 765 764 763 762 761 759 758 757 756 755 753 752 751 751 751 751 750 749 749 748 747 746 746 744 743 742 741 740 740
Wind_Speed
40 39 38 38 37 36 37 38 38 37 36 35 35 35 35 34 33 32 31 31 31 31 32 32 31 30 30 30 30 30 30 29 28 27 26 26 25 25 25 24 24 24 24 24 24 24 25 25 25 25 24 23 22 21 21 20 19 20 20 21 21 20 18 16 14 18 25 25 24 25 24 22 23 23 22 22 21 21 22 23 24 26 28 29 30
40 39 38 38 38 38 38 38 37 37 35 35 35 35 34 33 33 32 31 32 32 32 32 32 32 31 30 30 30 30 31 30 30 28 28 28 27 26 26 26 26 26 25 26 27 26 27 28 28 27 26 25 25 24 24 23 21 21 22 22 23 23 22 21 19 18 23 26 24 25 26 24 24 25 25 24 24 24 24 25 25 27 28 29 30
41 40 38 38 38 38 37 37 37 36 36 35 35 35 34 33 32 32 32 32 32 33 33 33 32 32 31 31 31 31 31 31 31 30 30 29 28 28 28 27 27 27 27 28 28 28 28 29 29 29 27 26 26 26 25 25 24 23 24 24 24 25 24 24 22 21 23 27 26 26 26 25 26 27 26 25 26 26 27 28 28 28 29 30 31
39 39 38 38 37 37 36 36 36 36 36 36 36 35 34 33 32 32 32 32 32 33 33 33 33 32 32 32 32 32 32 31 31 31 31 30 30 29 29 28 29 29 29 29 29 28 29 30 31 29 27 26 27 27 27 27 26 25 25 25 26 26 26 24 25 25 24 26 28 29 28 27 29 30 29 27 28 28 29 30 30 30 31 32 33
38 38 37 37 36 36 36 35 35 36 36 36 36 36 34 33 33 33 33 32 32 32 32 33 33 33 34 34 33 33 33 32 32 32 32 31 31 31 30 30 30 30 30 30 30 29 29 31 32 29 26 26 27 28 28 28 27 26 26 27 27 27 26 25 26 26 26 27 30 32 31 31 31 32 31 29 29 29 30 32 32 31 32 33 34
37 37 37 36 36 36 36 35 35 36 37 37 36 36 35 34 34 33 33 33 32 32 32 33 33 34 35 35 34 34 33 33 33 33 32 32 32 32 32 31 31 31 31 31 31 30 30 32 31 29 27 28 29 29 28 27 27 27 27 28 28 27 26 26 25 25 26 28 30 31 32 32 32 33 34 31 29 29 31 33 33 31 32 34 35
37 37 37 36 36 36 37 37 37 38 38 38 37 37 36 36 35 34 34 33 33 33 33 33 33 35 36 35 35 34 34 33 34 34 33 33 33 33 33 32 32 32 32 32 31 31 31 32 31 30 29 29 30 29 28 28 28 29 29 29 28 27 26 26 26 24 25 27 29 30 31 30 30 32 34 31 28 29 30 31 33 32 32 34 35
37 37 37 37 37 38 39 39 40 40 39 38 38 37 37 36 36 35 34 34 35 35 34 34 34 35 35 36 35 34 33 34 34 34 34 34 34 34 33 33 32 32 32 32 32 31 32 32 32 32 31 30 30 29 29 29 30 31 32 30 28 27 26 26 25 24 25 26 27 30 30 28 28 31 32 28 26 29 29 28 30 32 33 34 35
38 38 37 38 39 40 40 39 39 39 37 37 36 36 36 36 36 35 35 35 35 35 34 34 34 34 35 35 34 34 34 35 36 36 36 35 35 35 34 33 32 32 31 31 31 32 32 33 33 32 32 31 31 31 31 31 31 32 33 31 28 27 26 26 25 25 25 25 27 29 27 26 28 29 29 28 27 30 29 25 28 32 33 34 37
38 37 38 39 39 39 38 37 37 36 36 36 36 37 36 36 35 35 35 35 35 34 33 33 33 34 34 34 34 33 34 36 37 37 37 36 35 35 34 34 33 32 31 31 31 31 31 32 33 32 32 32 32 33 33 32 32 34 34 33 29 26 24 24 24 25 25 24 27 27 24 26 30 29 29 30 30 30 29 27 29 32 30 29 34
37 38 38 38 37 36 36 36 35 35 36 36 36 37 36 35 35 35 35 35 34 33 33 33 34 34 34 34 34 34 35 37 37 37 37 36 36 35 34 33 32 32 32 32 32 32 31 31 32 32 32 32 33 34 33 33 33 34 35 34 32 29 27 26 25 25 23 24 26 26 23 27 32 31 29 30 30 30 30 28 28 28 25 22 25
36 36 36 36 35 36 36 35 35 36 36 36 36 36 36 35 35 35 35 35 34 34 34 34 34 34 34 34 34 35 37 38 37 37 37 37 36 35 34 33 32 32 32 32 32 32 32 32 33 32 33 33 33 33 33 33 33 33 34 35 34 33 32 32 32 30 27 26 28 29 27 29 33 32 30 31 32 30 29 28 27 27 27 25 25
35 35 35 36 36 37 36 36 36 36 37 37 37 36 36 36 36 36 35 35 35 35 35 35 35 35 35 35 35 36 37 37 37 37 37 37 37 36 35 34 32 32 32 32 32 32 32 33 33 33 34 33 33 33 33 33 33 33 34 34 34 34 34 34 35 35 35 33 32 34 34 33 35 35 33 34 33 29 28 27 27 28 28 27 30
34 34 35 36 36 36 36 36 36 37 37 37 37 36 36 37 37 37 36 35 35 35 36 36 36 37 37 37 37 36 37 37 37 37 37 37 36 35 35 35 34 33 32 32 32 33 33 33 33 34 34 33 32 33 33 33 33 33 33 34 35 35 34 34 35 35 37 38 39 41 41 39 39 40 39 36 34 34 32 31 32 31 26 26 35
33 34 35 35 36 36 37 37 36 36 37 36 36 36 36 37 37 36 35 35 36 37 37 37 37 38 38 37 37 37 39 38 37 37 37 37 35 34 35 35 35 34 33 33 34 34 34 33 33 34 34 33 33 33 33 33 32 32 32 33 35 35 34 34 34 35 36 37 39 43 44 43 42 43 42 39 38 39 37 36 36 30 22 28 40
32 33 34 34 35 36 36 36 36 36 36 35 35 35 36 36 37 36 35 35 35 36 36 36 37 37 37 37 36 38 40 39 38 38 38 36 34 33 34 35 35 34 34 34 35 36 35 34 33 35 35 34 34 34 34 34 32 30 30 32 33 34 33 33 33 35 36 36 39 41 42 44 43 44 44 41 41 42 38 37 36 24 19 30 38
32 33 33 34 35 36 36 36 36 36 35 34 34 36 36 37 37 36 35 34 35 35 36 36 36 37 37 36 37 39 39 38 38 39 38 36 34 34 34 35 35 35 35 35 36 36 36 35 34 35 35 35 36 35 35 34 32 31 31 32 33 33 33 33 33 36 37 37 39 39 40 42 42 43 43 41 43 44 38 36 35 24 20 25 28
32 32 33 35 36 36 37 37 37 35 35 35 36 37 37 37 37 37 36 35 36 37 36 35 36 36 37 37 38 38 38 38 38 39 38 36 35 34 35 35 35 34 35 35 36 35 36 36 35 35 35 37 37 37 35 34 33 32 33 33 32 31 32 33 33 34 34 34 35 37 38 40 40 41 42 40 42 43 38 39 40 31 23 23 25
33 34 35 36 36 37 37 37 37 36 35 36 37 38 38 37 37 36 35 35 36 36 35 34 34 34 36 37 37 38 38 38 38 38 37 35 35 35 35 34 33 33 34 34 34 34 35 35 35 35 37 38 38 37 36 35 34 33 32 31 29 30 32 33 32 31 32 31 33 34 34 34 35 37 39 39 38 38 37 39 41 36 29 28 29
35 35 35 35 35 36 36 37 37 36 36 37 38 38 38 37 35 33 33 34 34 34 33 32 32 33 34 35 36 37 38 38 37 37 36 35 35 35 35 34 33 33 33 33 33 32 33 34 34 35 36 37 37 37 36 36 35 33 31 29 30 32 33 31 29 29 30 30 31 32 32 33 34 35 37 36 34 33 32 32 34 35 35 34 34
33 33 33 32 33 34 34 35 36 36 37 37 37 36 36 35 34 33 33 33 33 32 31 31 31 32 33 33 35 36 37 37 37 36 36 35 35 34 35 35 34 33 33 32 32 32 31 32 34 34 35 34 34 34 34 34 34 33 32 32 33 34 34 32 31 31 31 31 32 33 34 34 36 35 34 34 33 31 30 29 28 31 34 35 35
31 31 31 31 32 32 33 34 34 35 35 34 33 33 34 34 33 32 32 31 31 31 31 30 29 30 31 32 33 34 36 36 35 35 35 34 34 34 35 35 35 34 32 31 32 32 32 33 34 33 32 31 31 30 30 30 30 31 31 31 31 32 32 32 32 31 30 29 28 29 30 31 32 33 33 33 33 31 29 29 28 28 31 34 35
29 29 30 31 31 31 31 32 33 33 33 33 33 33 33 33 32 31 31 30 29 29 29 29 27 28 28 30 31 33 34 34 34 34 34 34 33 33 34 34 35 35 34 32 32 33 33 33 32 31 30 29 28 27 26 25 25 25 26 26 25 25 25 24 24 23 24 24 24 25 27 26 27 29 30 31 32 32 31 32 33 31 31 33 34
24 26 29 30 30 30 31 31 33 33 33 33 33 32 32 31 31 30 30 29 28 27 27 27 26 25 26 27 29 31 33 33 33 33 33 33 33 32 32 32 33 34 34 34 34 32 31 30 29 27 26 25 24 23 22 21 21 21 21 21 20 18 18 18 19 20 20 21 21 21 22 22 23 25 28 30 33 33 33 34 35 33 32 33 34
24 26 28 30 31 32 31 32 33 34 34 34 33 32 31 30 29 29 29 28 27 26 25 25 25 25 25 26 27 29 31 32 31 31 30 30 31 30 30 30 31 32 34 34 33 30 28 26 24 23 21 20 19 18 17 17 17 17 17 16 14 14 14 15 16 16 16 16 17 17 19 21 22 24 27 29 31 31 29 29 32 34 34 34 35
23 25 27 29 30 31 31 32 33 33 33 33 33 33 33 31 30 29 28 28 27 25 25 24 24 24 23 24 26 28 29 29 29 29 28 27 27 28 28 29 29 30 33 34 32 28 26 23 21 19 18 16 15 14 14 15 14 14 13 11 11 11 11 11 11 11 11 12 13 14 16 18 20 22 24 25 26 27 26 26 30 33 35 36 36
18 21 24 26 27 28 29 30 30 30 31 31 31 31 31 31 29 28 27 26 25 24 24 23 22 22 22 23 26 27 27 26 26 26 26 26 26 26 26 27 28 30 32 34 33 29 25 22 19 18 16 14 14 14 13 12 11 9 8 7 7 7 6 6 7 7 8 10 11 12 14 16 17 18 19 20 22 25 24 24 27 30 33 35 34
12 15 17 21 24 26 28 28 27 27 27 28 27 27 27 28 28 28 28 27 26 25 24 23 24 24 24 24 25 24 24 25 26 26 27 27 26 26 26 27 28 29 31 33 33 30 26 21 19 17 15 14 13 12 10 9 8 7 7 6 5 4 3 3 4 5 6 8 9 10 13 14 14 16 17 18 21 23 22 23 26 29 32 32 30
6 7 10 14 17 21 24 25 25 25 25 24 23 22 22 24 24 25 26 28 28 27 26 26 27 27 27 26 24 22 22 25 27 28 27 27 26 26 26 25 26 28 29 29 27 25 23 20 18 16 14 13 12 10 9 8 7 6 5 4 2 1 2 3 4 5 5 7 8 10 12 14 14 16 17 17 19 22 23 24 26 28 30 29 28
6 4 5 8 12 15 18 20 21 23 23 23 21 19 17 18 19 20 21 22 24 26 26 26 27 27 26 26 25 23 24 26 26 26 25 24 24 24 24 23 24 25 25 23 21 20 20 19 17 16 15 14 13 11 10 9 7 6 4 2 1 1 3 3 3 4 5 6 8 9 11 13 15 16 17 18 20 23 25 24 25 27 28 28 28
7 4 2 4 8 11 14 17 19 20 22 22 21 19 15 12 12 14 16 17 19 22 23 24 24 24 24 24 24 24 25 25 24 23 23 23 23 24 23 23 22 21 20 19 19 19 20 20 18 16 15 13 12 10 9 8 6 5 2 1 0 2 3 4 4 6 6 7 8 9 10 12 14 16 16 17 19 21 22 22 23 26 28 28 28
7 5 2 3 7 10 14 17 18 19 20 21 21 21 18 14 11 9 10 13 15 17 20 20 21 21 21 22 23 23 23 23 23 21 20 21 22 22 22 20 18 17 18 19 20 20 20 20 18 16 13 11 9 7 6 5 4 2 1 1 2 3 4 5 7 7 7 8 10 11 11 12 13 15 15 15 17 19 19 20 22 25 26 27 27
6 4 3 4 8 11 14 17 19 20 22 22 21 21 20 19 16 13 10 10 12 14 15 16 18 19 19 20 21 21 21 20 19 18 18 18 19 18 16 16 17 19 19 20 20 20 18 17 15 14 12 10 7 5 4 3 2 1 1 2 3 4 5 6 7 7 8 9 9 9 10 11 11 13 15 14 15 16 17 18 20 22 23 23 24
6 3 3 5 8 11 13 16 18 20 21 21 21 21 19 19 19 18 14 11 9 9 9 11 13 15 16 18 20 20 19 17 16 16 17 18 18 19 20 21 21 19 17 17 19 18 16 14 12 11 9 8 6 5 3 2 1 0 1 2 3 4 6 6 7 8 9 9 8 8 9 10 10 11 13 14 15 16 17 17 18 18 18 20 21
6 4 3 5 7 9 11 14 16 18 18 18 20 20 19 18 19 18 16 15 14 12 9 9 9 11 13 15 15 16 16 17 18 19 21 22 22 22 22 22 19 16 14 14 15 15 13 11 10 9 8 7 5 4 2 1 0 1 2 2 4 5 6 7 8 9 9 9 9 9 10 11 11 10 11 12 13 14 15 17 17 17 17 17 18
7 6 5 4 6 7 9 11 13 15 17 17 18 18 18 18 18 17 17 18 18 18 16 15 14 12 12 14 16 18 20 23 24 23 23 22 21 20 21 21 20 18 16 14 14 13 12 10 9 8 7 6 4 3 2 1 0 1 2 3 4 5 6 7 9 10 10 10 11 12 12 12 12 11 11 13 13 12 12 13 14 14 15 15 16
8 7 7 6 7 8 9 10 11 13 14 16 16 17 17 17 18 18 18 19 21 22 22 22 22 22 21 21 23 25 26 25 24 22 21 19 16 16 19 21 20 19 18 16 14 14 13 11 8 7 6 5 4 2 2 1 1 2 2 3 3 4 6 7 9 10 10 11 13 13 13 12 12 10 11 13 13 12 12 12 10 10 12 14 14
9 8 8 8 9 10 12 13 13 13 14 15 16 17 18 18 19 19 20 20 21 22 21 22 24 26 26 25 26 27 27 26 24 23 21 20 19 18 19 20 20 20 18 16 14 14 12 10 7 6 6 5 4 3 3 3 3 3 3 3 4 5 6 8 8 9 11 12 13 13 12 12 12 11 11 11 11 11 12 11 9 8 9 11 11
11 10 9 9 11 13 16 17 18 17 17 17 17 18 18 19 19 20 21 20 20 19 20 20 21 23 25 27 27 26 25 24 23 22 22 22 22 21 19 18 18 17 15 13 12 11 11 9 6 6 6 5 5 5 5 5 5 5 4 5 5 6 8 9 9 10 11 12 12 12 13 12 12 12 11 10 10 10 10 9 8 6 6 8 9
13 12 12 12 14 16 17 19 20 21 21 21 21 21 20 18 18 20 21 22 22 21 21 21 20 19 21 23 23 22 23 23 22 22 23 24 23 20 18 17 16 14 12 10 9 9 10 9 7 6 6 6 7 7 7 7 7 7 6 6 7 8 9 9 10 10 11 12 12 12 13 13 12 12 11 10 9 8 7 6 6 5 4 5 7
13 14 14 16 17 18 19 19 19 21 22 23 23 24 23 22 22 23 24 24 25 24 24 24 22 20 19 19 21 23 26 26 24 24 25 24 23 21 19 17 16 14 12 11 10 10 10 10 8 7 7 7 7 7 7 7 7 7 7 8 8 9 9 10 10 10 11 12 12 12 12 13 12 12 11 10 9 7 6 4 3 3 3 2 4
15 16 16 17 18 18 18 18 19 21 22 23 23 24 25 26 26 26 25 24 24 24 25 26 27 26 24 23 24 27 29 28 26 24 25 24 23 21 20 18 16 15 13 12 12 11 10 10 9 8 7 8 8 8 8 7 8 8 8 8 9 9 10 11 11 11 11 12 12 13 13 13 12 11 11 10 9 8 6 4 3 2 1 2 3
17 17 17 17 18 18 19 20 22 23 23 23 24 24 25 26 27 27 26 24 22 22 22 23 26 29 29 27 27 28 29 28 26 24 23 23 22 21 20 18 17 15 14 13 13 12 11 11 10 9 9 9 9 8 9 9 9 9 9 9 9 10 10 11 12 11 11 12 12 13 13 13 12 12 10 9 9 9 7 5 4 3 3 3 3
19 19 19 18 18 19 19 21 23 23 23 25 27 27 28 29 29 27 26 24 23 23 22 22 25 28 29 27 28 28 27 27 26 24 23 22 22 21 20 19 18 16 15 14 13 12 12 12 12 11 11 11 10 10 10 10 9 9 9 9 9 9 10 11 13 13 13 12 13 13 14 14 13 12 11 9 8 8 8 7 6 6 5 5 4
21 21 20 19 20 20 20 20 22 22 24 29 30 29 29 30 28 25 23 22 23 25 26 26 27 29 30 29 28 28 27 26 25 23 22 21 21 21 20 19 17 16 15 14 12 12 12 12 13 13 13 12 12 12 11 11 11 10 10 10 10 11 10 11 12 13 13 12 12 13 14 14 13 12 12 10 9 8 8 8 8 8 7 6 5
23 21 20 20 21 20 20 21 22 23 23 24 25 26 27 28 26 24 22 22 23 25 26 26 27 28 30 29 28 27 26 25 24 23 22 22 21 21 20 19 17 17 16 15 14 13 13 13 13 14 14 13 13 13 13 12 11 11 11 11 11 11 11 11 11 12 12 12 11 12 13 14 13 12 12 11 10 10 9 9 9 9 8 6 5
26 25 23 23 23 22 21 22 23 23 22 20 20 22 25 25 25 25 25 24 24 24 26 26 26 26 27 28 28 26 24 23 23 24 24 23 22 22 21 21 20 19 18 18 17 16 15 15 15 15 15 15 14 13 13 13 13 12 12 12 12 12 12 11 11 11 11 11 11 11 12 13 13 13 13 12 11 10 10 9 9 8 7 6 5
31 30 28 28 28 27 25 24 24 25 24 24 24 25 26 26 26 25 24 23 25 26 27 27 27 26 26 26 26 26 25 24 24 24 25 24 24 23 22 22 22 21 21 20 20 19 18 18 17 17 17 16 16 16 15 15 14 14 14 14 14 13 13 12 12 11 11 11 11 11 11 12 13 13 13 13 12 11 10 8 8 8 7 7 6
33 32 29 29 31 31 30 29 27 26 26 26 27 28 28 28 27 26 24 24 26 28 28 27 26 25 24 24 23 24 24 25 24 23 23 23 24 24 24 24 24 23 23 23 22 22 21 20 19 19 19 19 18 18 17 17 16 16 16 16 15 14 12 11 11 11 11 11 11 11 11 12 12 12 12 13 13 13 12 11 9 8 7 7 7
36 35 33 32 33 34 35 35 33 30 29 29 30 30 30 29 28 27 26 27 27 27 26 26 25 25 24 24 23 22 23 23 23 22 22 22 23 23 23 24 24 24 24 24 23 23 22 22 21 21 21 20 20 20 19 19 18 18 18 17 16 14 12 11 11 11 11 12 12 12 12 11 11 12 12 12 12 12 12 12 11 10 9 8 7
35 36 35 33 32 34 36 37 36 35 35 34 34 33 32 31 29 29 29 30 28 27 27 28 28 27 26 25 24 22 22 21 21 21 21 21 21 21 22 23 23 23 23 23 23 23 22 22 21 20 20 20 20 20 20 20 19 18 17 15 14 14 13 13 12 11 12 12 12 12 11 10 10 10 11 11 12 12 12 11 11 10 10 9 8
Wind_Direction
202 203 204 205 207 208 209 210 212 214 215 215 217 220 222 223 226 228 229 232 233 234 236 237 238 239 239 240 241 243 246 249 250 251 250 250 250 250 250 251 252 254 255 256 256 256 258 261 263 266 267 268 269 270 269 269 267 265 264 264 263 263 262 252 248 269 280 283 285 287 289 290 289 289 288 288 287 284 281 278 276 273 271 270 270
201 203 203 205 206 208 209 210 211 213 214 215 218 220 221 223 225 226 228 231 233 234 235 237 238 239 240 241 242 244 246 248 249 249 249 250 250 250 250 251 252 254 255 257 258 258 259 261 264 266 267 267 269 270 271 270 269 267 265 264 263 263 261 257 253 264 277 280 281 284 287 286 284 286 286 286 287 286 283 281 280 278 277 276 274
201 202 202 204 206 207 208 209 210 212 213 215 217 219 221 222 223 225 227 229 232 233 235 236 237 238 240 242 243 244 246 248 249 248 249 249 250 251 251 251 251 253 255 257 259 259 259 261 264 266 266 266 268 269 270 270 268 268 267 266 265 265 264 261 256 258 270 279 282 283 285 285 284 287 288 287 287 285 282 282 281 279 279 278 277
200 200 201 204 206 206 208 209 209 211 212 215 217 219 220 221 222 224 227 228 230 232 234 235 236 237 239 241 243 244 246 247 248 248 249 249 250 251 252 252 252 253 255 257 259 259 259 261 264 265 265 265 268 269 269 270 269 268 268 268 267 267 267 264 261 260 265 274 280 281 283 284 284 286 287 286 285 283 281 282 280 279 279 279 278
198 199 200 202 204 205 207 208 209 210 212 214 217 218 219 220 221 223 225 226 228 230 232 232 233 235 237 240 242 243 245 246 246 247 249 250 251 252 253 253 254 255 256 258 259 258 259 262 264 264 263 264 267 268 268 269 270 270 270 270 269 269 269 266 265 264 263 267 274 279 281 282 283 284 285 284 283 283 282 281 279 277 278 277 276
196 197 199 201 202 204 205 207 209 211 212 214 216 218 218 219 220 222 223 224 226 229 230 231 232 234 237 239 241 243 244 245 245 246 248 249 251 253 253 253 253 255 256 258 259 259 260 262 264 263 263 264 266 268 269 270 271 271 271 272 273 271 270 269 267 266 264 265 270 275 278 280 281 284 285 284 282 282 283 283 281 278 276 276 275
195 196 198 200 202 203 205 207 209 211 213 214 216 217 217 219 220 221 222 223 225 227 228 230 232 234 237 239 240 241 242 244 245 246 247 247 249 251 252 252 253 254 256 258 259 260 261 263 263 263 263 264 266 268 269 271 272 274 274 274 273 272 271 272 270 267 266 267 269 273 276 278 279 282 285 285 282 280 279 279 280 281 280 279 278
194 196 197 199 202 204 206 208 210 212 214 214 215 216 217 218 220 221 222 223 225 227 228 230 232 234 237 238 239 240 240 242 243 244 245 246 247 249 250 250 251 253 255 257 259 260 262 263 263 264 264 265 266 267 269 271 272 274 276 274 272 271 271 271 270 269 268 267 269 273 275 277 277 279 282 281 277 276 276 274 275 279 282 280 280
193 195 196 199 203 205 207 209 210 212 213 214 215 216 217 219 219 220 222 223 226 227 228 230 232 233 236 237 238 238 238 240 241 242 242 243 245 247 248 249 250 252 253 256 258 259 261 263 264 264 265 266 268 269 270 271 271 272 275 274 271 270 270 270 270 270 268 267 268 272 274 275 275 276 277 274 272 276 279 275 272 276 280 280 280
193 194 197 201 203 205 206 207 209 210 211 213 215 216 218 218 219 220 222 224 226 227 228 230 231 233 235 236 236 236 237 239 241 241 242 242 243 244 246 247 249 250 252 254 256 258 260 262 264 265 266 268 270 270 270 271 270 272 274 273 270 267 267 267 267 267 267 267 268 271 271 272 273 273 274 276 278 279 278 274 271 276 279 279 281
192 195 198 201 202 203 205 206 208 209 211 213 215 217 217 218 219 220 222 223 225 226 228 229 230 232 234 235 236 235 237 239 240 241 242 242 242 242 244 246 248 249 251 253 255 258 259 261 263 264 265 267 269 270 270 270 270 272 275 275 271 266 263 263 264 265 266 267 269 271 269 271 274 275 276 279 279 277 275 273 270 272 273 271 277
192 195 198 200 201 202 204 205 207 209 211 213 214 216 217 217 219 220 221 223 224 225 227 229 230 232 233 235 236 236 238 240 241 241 242 243 243 242 242 244 246 248 250 252 254 257 259 261 263 264 265 267 268 270 271 271 272 273 275 276 274 270 267 265 264 264 264 265 268 269 267 270 274 275 275 277 277 276 275 273 269 267 266 265 268
192 195 197 198 200 202 203 204 206 208 210 212 214 215 216 217 219 220 221 223 223 225 227 228 230 232 233 234 235 236 239 241 241 242 243 243 244 243 242 243 244 246 249 250 253 255 257 259 261 262 264 266 267 268 270 271 273 273 274 276 275 274 271 269 267 266 264 263 264 265 267 268 270 273 275 276 277 277 275 274 271 267 264 265 269
191 194 197 199 200 202 203 204 206 209 211 212 213 214 215 217 219 220 221 222 222 224 226 228 229 231 233 234 236 238 239 240 242 243 243 244 244 244 244 243 244 245 247 249 252 254 256 257 258 261 263 264 264 266 268 269 270 271 273 274 275 276 275 273 272 270 266 262 260 263 268 269 268 272 276 276 275 274 273 273 273 270 269 273 275
191 194 197 199 200 201 203 205 207 209 211 211 212 213 215 217 218 219 220 221 222 225 226 227 229 231 233 234 236 239 241 241 242 243 244 245 244 244 245 244 244 245 246 248 250 253 255 255 256 260 262 263 264 265 267 268 269 269 269 271 274 275 274 273 276 276 274 270 266 268 273 275 275 277 279 277 275 274 274 274 275 276 280 279 277
192 195 197 199 201 202 203 205 207 209 210 210 211 213 215 217 219 219 220 221 223 225 227 227 229 231 232 233 235 238 241 242 242 243 244 245 244 244 245 244 244 244 245 247 250 252 254 254 255 258 260 262 264 265 267 268 267 265 265 267 270 272 271 274 279 281 282 281 279 279 282 284 284 285 284 283 280 278 278 277 277 279 279 277 276
193 196 198 200 202 203 204 205 207 209 209 209 210 213 215 218 219 219 219 220 222 224 226 228 229 231 232 232 234 237 240 242 242 243 244 243 242 243 243 243 243 243 245 248 250 251 252 252 254 256 259 262 264 266 268 267 264 261 262 265 268 270 271 275 279 281 281 282 283 284 286 287 288 288 288 287 285 282 277 273 274 269 259 263 270
195 197 199 202 203 204 205 206 208 208 208 209 211 214 216 218 219 219 218 220 222 224 226 228 229 230 231 232 234 237 240 242 242 243 243 242 241 241 242 242 242 242 246 249 249 250 252 253 253 254 257 261 264 266 266 265 262 261 261 264 266 267 271 275 277 278 280 281 281 282 283 285 286 287 288 287 287 283 275 272 276 272 254 249 257
197 199 202 204 205 205 206 207 208 208 209 210 213 215 217 218 220 219 219 220 223 225 226 227 229 230 232 233 235 237 240 242 243 243 243 241 240 240 240 239 239 241 244 247 249 250 251 252 253 254 256 261 265 266 266 264 262 261 262 263 263 265 271 276 276 278 280 280 281 281 282 283 286 288 289 288 287 285 279 276 278 274 262 258 260
200 201 204 205 205 206 207 208 210 210 210 212 214 216 218 219 219 218 219 221 224 226 227 227 229 231 232 233 235 237 239 241 243 243 243 241 240 239 238 236 237 240 243 245 247 249 251 252 254 255 257 261 264 265 265 263 262 261 259 259 261 267 273 276 276 278 279 279 281 283 284 287 288 288 289 290 291 290 285 281 277 271 265 263 263
201 203 205 205 206 208 209 210 211 212 213 214 215 216 218 219 218 218 218 220 222 225 226 227 229 232 233 234 235 237 239 240 242 242 242 241 240 239 236 236 238 240 242 244 246 247 250 252 255 258 260 262 263 264 264 264 263 261 259 259 264 271 275 276 276 277 278 280 283 286 288 290 291 292 293 295 296 296 293 287 281 274 269 265 265
201 204 205 207 208 209 210 212 213 214 216 216 215 217 218 219 219 219 218 219 221 223 225 226 227 231 234 235 236 238 240 241 242 242 243 242 241 239 237 238 241 240 240 242 245 247 250 253 257 261 262 262 264 264 264 265 263 262 263 266 271 275 275 274 276 278 280 284 287 289 291 293 295 297 300 301 302 303 300 294 288 283 277 273 271
201 204 206 208 210 211 211 213 213 215 216 216 215 217 218 218 219 218 217 218 219 221 223 224 225 229 233 235 237 240 242 242 242 242 243 243 243 242 241 242 244 242 239 241 245 249 252 255 258 261 262 262 264 264 264 264 263 264 267 269 269 270 270 272 276 281 285 289 290 291 293 296 299 302 305 307 307 306 304 300 297 293 289 285 282
197 203 207 210 212 213 213 214 214 215 217 215 215 217 218 217 218 218 217 217 217 219 222 222 222 225 229 233 236 239 241 243 243 243 244 245 244 244 244 244 245 244 242 244 247 249 252 255 257 259 260 260 260 260 260 260 261 261 262 261 261 264 270 276 281 285 287 289 291 292 296 301 305 307 310 311 310 309 308 307 306 304 300 298 294
193 200 205 209 212 213 214 215 215 216 216 215 214 215 216 216 216 216 216 215 215 217 219 219 220 222 225 230 235 238 240 242 243 244 244 245 246 246 247 247 247 246 244 244 246 247 249 252 254 255 254 253 252 252 253 252 253 253 254 258 264 271 276 279 281 283 285 288 291 295 301 308 310 311 312 313 313 315 315 314 314 313 311 309 305
192 198 204 208 211 212 212 214 216 216 216 215 215 215 216 215 214 214 214 214 215 216 217 218 219 220 224 229 233 237 240 241 243 244 244 245 246 246 247 247 247 246 243 241 241 242 244 246 246 244 242 241 240 243 244 246 249 253 258 264 267 268 271 273 276 281 287 293 299 301 305 311 314 316 319 319 317 318 318 317 315 314 314 315 312
189 196 202 207 210 211 211 213 215 215 215 215 215 216 217 215 214 213 212 211 212 214 216 217 217 218 222 227 231 236 240 240 241 243 243 243 244 244 244 244 243 241 240 238 237 236 236 236 235 234 233 234 236 240 242 243 245 246 246 248 249 253 260 267 277 291 301 304 304 303 307 315 318 320 322 320 317 319 321 319 315 313 315 317 313
178 189 198 205 208 210 211 212 212 212 213 213 213 214 216 215 215 214 213 212 211 211 213 215 216 218 220 224 228 233 235 237 239 242 243 243 243 242 242 241 240 240 240 238 234 229 227 228 228 228 230 231 229 226 223 219 216 215 215 216 222 235 255 281 304 316 315 313 311 310 315 320 319 319 322 319 315 319 322 320 317 316 318 319 316
145 172 191 201 205 207 208 208 207 207 207 206 207 209 211 213 215 216 217 217 216 215 215 216 219 222 223 224 226 225 228 236 243 246 246 246 244 243 243 243 243 242 241 237 230 221 217 219 219 216 213 208 200 192 190 191 189 190 194 192 187 230 295 326 332 327 324 324 321 316 317 319 318 321 323 317 314 320 324 325 324 324 324 324 320
95 123 179 198 205 206 204 202 201 201 200 197 196 196 200 207 211 213 215 218 219 220 222 223 225 227 227 227 228 229 234 243 250 249 246 244 243 242 242 242 242 241 237 230 219 207 200 197 195 191 186 183 183 183 183 182 178 175 179 171 145 333 338 351 343 328 324 324 320 315 317 319 318 319 318 314 315 323 328 329 330 331 332 329 323
90 92 139 201 205 202 198 193 192 193 192 190 187 183 180 184 196 204 208 211 215 218 222 225 229 231 230 230 231 233 238 245 249 247 242 239 236 235 234 234 235 234 225 211 197 188 182 174 168 170 173 176 180 180 175 171 172 179 194 194 111 6 359 1 353 340 331 326 324 324 325 321 314 312 315 315 318 323 328 332 336 338 337 333 325
98 97 118 191 196 193 189 186 184 183 182 182 182 179 172 162 156 169 193 204 210 214 218 221 224 228 230 232 232 233 235 237 239 238 234 229 228 227 228 226 220 209 199 189 177 169 166 163 160 163 167 167 166 164 159 154 157 168 200 333 4 7 359 351 347 340 333 331 332 331 328 321 314 317 323 324 325 328 331 337 341 341 339 335 330
101 109 135 175 185 187 184 181 180 179 178 178 178 177 173 166 154 144 152 178 196 205 210 214 217 221 225 228 230 231 232 230 228 224 218 215 212 207 198 186 173 167 169 168 160 154 156 157 157 158 158 155 148 141 133 126 121 116 16 344 343 350 349 343 340 338 338 338 334 326 322 321 323 331 336 337 337 338 339 343 345 343 342 340 336
97 117 159 183 188 190 188 184 181 180 179 178 177 176 176 174 166 155 148 148 155 169 184 194 203 211 217 220 221 223 221 214 204 195 188 181 174 167 157 149 147 151 157 157 150 148 150 150 147 145 141 135 129 122 111 107 104 41 9 348 337 341 343 342 343 346 346 342 330 318 324 334 341 342 341 343 348 350 349 352 351 347 345 346 343
98 115 148 182 192 193 191 188 184 179 175 174 176 176 177 176 171 165 157 147 136 129 131 145 166 188 200 202 202 200 192 176 163 158 153 146 144 145 139 131 127 130 136 138 136 135 135 130 124 120 116 112 113 114 113 117 83 22 11 355 345 344 343 345 350 352 348 342 336 337 346 354 354 348 343 347 356 359 357 357 358 354 352 353 353
95 108 124 151 172 177 179 180 180 177 173 172 173 173 170 167 162 156 149 143 134 125 118 116 121 134 147 150 147 145 143 140 137 136 133 131 133 135 128 118 114 112 111 111 112 112 109 101 98 99 100 98 97 98 107 119 79 51 23 358 347 342 340 345 352 352 349 348 350 352 356 358 355 351 351 356 3 6 4 2 1 1 2 4 6
88 100 113 128 141 147 149 153 158 162 162 161 161 158 155 153 149 142 136 133 128 122 119 118 119 119 119 121 124 125 124 123 122 121 119 120 125 128 125 121 118 114 108 102 100 101 99 96 96 96 92 90 90 96 109 104 70 54 35 8 351 343 347 353 357 355 353 355 357 357 356 356 355 352 354 360 6 11 13 13 9 6 12 18 22
90 97 110 126 136 139 138 135 137 140 142 143 145 144 140 136 133 129 126 124 122 120 119 120 119 117 117 119 121 119 115 112 109 108 109 112 112 110 109 109 108 106 103 101 101 102 103 102 98 87 79 84 96 102 100 86 65 45 32 19 7 3 4 5 4 2 0 360 360 357 353 353 357 357 359 4 9 13 20 24 20 13 16 25 29
96 100 110 124 131 133 134 133 133 132 128 125 127 128 125 122 122 120 119 118 115 113 114 114 113 116 122 125 123 118 113 109 106 103 101 102 102 98 95 96 96 97 99 102 104 107 107 103 94 82 77 81 90 90 84 74 61 48 37 31 26 20 16 11 7 6 5 2 359 356 352 353 357 359 1 7 8 10 22 35 41 38 28 28 32
105 109 115 121 124 126 128 129 129 128 126 123 121 117 113 110 109 109 108 106 101 98 99 100 103 114 124 125 123 118 112 106 104 103 100 97 97 96 94 94 96 98 102 107 112 115 113 108 103 95 86 80 82 81 73 64 56 49 41 36 32 25 19 14 10 8 7 3 359 355 353 354 356 358 1 6 5 1 10 30 49 65 63 39 37
113 114 116 119 120 119 117 115 115 117 119 120 119 115 111 108 105 101 99 97 96 96 94 92 95 107 118 123 125 122 115 107 104 103 102 100 100 98 97 96 97 98 100 104 108 114 116 112 106 98 89 81 78 74 68 60 54 49 44 40 36 29 24 22 17 12 8 5 2 0 358 356 356 356 356 360 359 353 356 10 35 79 89 52 38
113 113 115 118 118 113 109 107 108 110 111 111 112 112 112 112 110 107 102 98 97 98 97 95 98 105 112 118 123 121 115 109 105 100 98 99 99 97 98 101 102 102 103 104 105 107 110 108 101 93 85 80 73 68 64 57 50 48 46 44 41 35 31 28 22 15 10 6 4 5 3 359 357 355 352 353 354 347 339 343 353 357 14 18 32
110 107 108 110 110 107 107 110 111 109 107 107 109 110 111 111 110 108 105 101 97 95 92 92 96 101 104 111 116 114 108 105 104 100 97 98 98 96 98 102 104 104 105 106 107 108 108 105 100 93 86 80 73 67 63 55 50 48 47 44 41 36 30 27 22 15 10 8 6 7 6 1 358 355 350 348 348 342 333 330 331 322 317 328 348
111 106 103 101 99 100 104 108 109 107 106 108 109 108 108 108 107 104 103 101 100 97 93 91 93 96 97 102 107 107 102 100 100 99 98 98 96 96 99 102 104 104 102 101 103 107 108 105 101 96 90 85 79 73 68 60 52 47 41 36 34 30 26 24 21 16 11 7 4 3 3 1 357 354 349 345 339 334 327 321 317 314 315 316 313
108 104 100 96 94 94 97 102 104 104 106 107 106 104 104 104 101 98 97 97 98 97 94 92 92 93 93 93 95 96 96 96 96 96 97 97 96 97 99 101 102 100 98 96 98 100 100 99 97 93 90 86 81 76 69 62 54 46 38 31 26 22 18 15 15 14 12 11 7 4 3 2 358 352 347 343 336 328 321 315 312 310 310 311 306
102 100 98 96 94 92 93 96 98 99 100 101 101 99 99 98 96 94 92 92 91 91 90 89 88 89 89 90 90 89 90 90 90 90 92 94 95 95 95 96 97 96 94 93 92 90 89 88 87 86 84 79 75 71 66 60 54 47 40 34 28 22 17 12 8 7 8 9 10 8 6 7 5 357 346 338 331 324 316 311 309 306 301 301 303
97 93 92 94 92 89 88 90 91 91 91 91 91 92 92 92 92 92 91 90 88 85 83 83 83 82 83 85 87 87 86 85 85 86 88 90 91 92 92 92 93 92 90 89 86 84 83 82 80 78 77 73 69 67 63 58 53 47 41 37 31 25 20 13 9 8 8 7 7 6 4 5 5 2 356 348 340 332 319 308 304 302 297 293 287
96 92 90 91 91 89 87 86 85 85 86 87 87 86 86 85 84 84 85 86 86 84 81 80 80 79 78 79 81 82 83 84 84 85 86 88 89 91 90 89 88 87 86 86 84 80 78 77 74 73 71 67 64 61 57 53 49 45 40 35 29 23 17 11 6 5 6 5 5 5 4 1 357 354 353 351 349 347 341 329 313 301 294 291 284
93 89 87 87 88 88 86 85 84 83 84 85 84 83 82 81 80 79 79 81 83 83 81 79 78 78 78 78 77 78 79 81 80 80 82 85 88 89 89 88 87 85 83 82 80 78 76 74 71 69 66 62 59 56 51 47 43 39 35 31 25 19 12 7 2 359 358 359 1 2 4 1 354 348 346 344 344 346 346 344 338 325 308 298 290
89 87 86 86 87 88 88 87 85 83 82 82 81 80 80 79 79 79 80 80 80 80 80 80 79 78 78 77 76 75 75 76 75 75 78 81 83 85 86 85 85 83 81 78 77 75 73 70 68 65 62 60 57 53 49 45 40 37 32 27 22 16 10 5 359 354 353 353 353 353 353 353 350 346 343 341 340 341 339 338 339 338 331 321 310
90 90 89 88 88 89 90 89 88 86 84 82 80 79 79 78 78 78 79 78 78 78 79 80 81 81 80 79 78 76 75 74 74 75 76 77 78 80 81 81 80 79 78 75 73 71 69 66 64 61 58 56 53 51 48 45 40 36 32 27 21 17 14 10 4 359 355 352 348 347 347 347 346 346 345 343 342 342 340 337 334 331 327 326 324